FENGYUN 1C DEB

Satellite information

Favourite Embed

Satellite Type and Status

DEBRISIN ORBIT

Key statistics

Satellite FENGYUN 1C DEB at a glance.

Uptime

9493

Days in orbit

Revolutions

≈ 12.8

Per day

Orbit

SSO

Sun Synchronous Orbit

Inclination

99.9

Latest

Satellite identification and parameters

Extended collection of information and parameters for FENGYUN 1C DEB.

Object identification

Identified? True

Debris? True

Object name: FENGYUN 1C DEB

International designator: 1999-025EJF

Object number (NORAD): 37461

Object ID (CCSDS): 37461

Country: PEOPLES REPUBLIC OF CHINA (PRC)

Current information (Y/N): Y

RCS size: SMALL

Orbital parameters

Period: 112.646 minutes

Inclination: 99.874 deg

SMA: 7726.263 km

Apoapsis: 1862.341 km

Periapsis: 833.915 km

RAAN: 38.8795 deg

Eccentricy: 0.0665539

Argument of periapsis: 95.4555 deg

Mean anomaly: 272.2775 deg

Mean motion: 12.7834639 rev/day

Mean motion (dot): 0.00003084 rev/day2

B* drag term: 0.0055173 1/REarth

Two-line elements (TLE)

Creation date: May 4, 2025, 5:21 p.m.

Reference frame: TEME

Reference center: EARTH

Epoch: May 4, 2025, 12:54 a.m. UTC

TLE line 0: 0 FENGYUN 1C DEB

TLE line 1: 1 37461U 99025EJF 25124.03815364 .00003084 00000-0 55173-2 0 9998

TLE line 2: 2 37461 99.8740 38.8795 0665539 95.4555 272.2775 12.78346390491882

Live tracking on map

Real-time ground track for satellite FENGYUN 1C DEB.

In-orbit conjunctions

A list of the most updated potential collisions computed for object FENGYUN 1C DEB.

Target Orbit TCA Probability of collision Miss distance Type
M-4S R/B LEO 2024-07-12 18:18:16 0.0001002307 639.0 (m) ROCKET BODY
GEOS 3 SSO 2024-06-06 21:15:39 0.0001477231 656.0 (m) PAYLOAD

Associated space launch

Chinese polar orbiting meteorological satellite

FENGYUN 1C DEB was lifted into orbit during the mission ‘Long March 4B | Feng Yun 1C’, on board a Long March 4B space rocket.

The launch took place on May 10, 1999, 1:33 a.m. from Launch Complex 7.

For more information about the launch, click the button.

Launch to space Long March 4B | Feng Yun 1C
Long March 4B | Feng Yun 1C

Agency: N/A

Status: Launch Successful

Launch date: May 10, 1999, 1:33 a.m. UTC

Rocket: Long March 4B

Launch pad: Launch Complex 7

Location: Taiyuan Satellite Launch Center, People's Republic of China

...

Latest news about this satellite

There are no fresh news available about this satellite. Check back as we update our databases every day.


Newsletter sign-up

Weekly statistics, charts and insights to help you stay on top of the space industry.